User: anonymous   Login
Location: Lugrin
(46.4033°N, 6.6674°E)
Time: 21:59:46
(UTC+00:00)
Language:

Okean 2 Rocket - Orbit

View from above orbital plane
View from above orbital plane
View from above satellite
View from above satellite

Ground track
Ground track

The orbit data is extracted from the following two-line orbital elements,

1 20511U 90018B   20328.49399678  .00000089  00000-0  87377-5 0  9991
2 20511  82.5251 225.0188 0016489 320.4806 212.4679 14.80055451657733
Epoch (UTC): 23 November 2020 11:51:21
Eccentricity: 0.0016489
inclination: 82.5251°
perigee height: 617 km
apogee height: 641 km
right ascension of ascending node: 225.0188°
argument of perigee: 320.4806°
revolutions per day: 14.80055451
mean anomaly at epoch: 212.4679°
orbit number at epoch: 65773

The dashed part of the orbit path shows where the satellite is in the earth's shadow,  

DLR